[[{"header":{"parameterUnit":"m.s-1","parameterCategory":1,"la1":30.2992,"la2":30.254,"lo1":-89.0895,"lo2":-89.0443,"dy":0.0025,"dx":0.0025,"nx":19,"ny":19,"refTime":"2026-05-17T09:00:00:Z","depth":0,"parameterNumber":2,"parameterNumberName":"U-component_of_WINDS"},"data":[0,0,0,-5.732,-5.7325,-5.7548,-5.7549,-5.7833,-5.7835,0,0,0,0,0,0,0,0,0,0,0,-5.7255,-5.7257,-5.732,-5.7325,-5.7548,-5.7549,-5.7832,-5.7835,0,0,0,0,0,0,0,0,0,0,0,-5.7254,-5.7257,-5.7259,-5.7326,-5.7548,-5.7549,-5.7831,-5.7663,0,0,0,0,0,0,0,0,0,0,-5.7447,-5.7389,-5.7256,-5.7259,-5.7328,-5.7547,-5.7549,-5.7655,-5.7674,-5.7732,0,-5.7785,0,-5.7815,-5.7854,-5.7855,0,0,0,-5.7324,-5.7373,-5.7433,-5.726,-5.733,-5.7547,-5.7447,-5.7666,-5.7687,-5.7756,-5.7789,-5.78,-5.782,-5.7856,-5.7857,-5.8199,-5.8201,0,0,-5.7312,-5.7296,-5.7418,-5.7446,-5.7414,-5.744,-5.7454,-5.7678,-5.7712,-5.779,-5.7806,-5.7824,-5.7858,-5.786,-5.8198,-5.82,0,0,0,-5.7277,-5.7287,-5.7341,-5.7435,-5.7475,-5.7446,-5.7463,-5.7702,-5.7721,-5.7809,-5.7828,-5.786,-5.7863,-5.8196,-5.8199,-5.8264,0,0,0,-5.727,-5.7267,-5.7335,-5.7328,-5.7471,-5.7592,-5.7482,-5.7706,-5.7732,-5.7826,-5.786,-5.7866,-5.8194,-5.8197,-5.8258,-5.8297,0,0,0,-5.724,-5.7264,-5.7296,-5.7326,-5.7422,-5.7589,-5.7621,-5.7712,-5.7743,-5.7855,-5.7867,-5.8193,-5.8197,-5.8253,-5.8288,-5.838,0,0,0,-5.7204,-5.7352,-5.7297,-5.7469,-5.742,-5.7629,-5.7619,-5.7775,-5.788,-5.7861,-5.8195,-5.8198,-5.8252,-5.8283,-5.8375,-5.8453,-5.8485,0,0,-5.7381,-5.7372,-5.7475,-5.7433,-5.7647,-5.7596,-5.782,-5.793,-5.7955,-5.8116,-5.8125,-5.826,-5.8288,-5.8379,-5.8674,-5.8699,0,0,0,-5.7526,-5.7599,-5.7659,-5.7759,-5.7848,-5.7926,-5.8004,-5.8045,-5.8183,-5.8035,-5.832,-5.8337,-5.8391,-5.8429,-5.8451,-5.8497,-5.8216,-5.8216,-5.8215,-5.7752,-5.7777,-5.7948,-5.7999,-5.8096,-5.8175,-5.8255,-5.8323,-5.832,-5.8387,-5.8434,-5.861,-5.8654,-5.867,-5.8718,-5.848,-5.848,-5.848,-5.848,-5.8012,-5.8118,-5.8112,-5.8274,-5.8299,-5.8436,-5.8518,-5.8511,-5.864,-5.8577,-5.8626,-5.8551,-5.8697,-5.874,-5.8486,-5.8485,-5.8484,-5.8484,-5.8483,-5.8161,-5.8216,-5.8264,-5.841,-5.852,-5.8567,-5.8692,-5.871,-5.8729,-5.8777,-5.8828,-5.8827,-5.8825,-5.8801,-5.8801,-5.8802,-5.8802,-5.8803,-5.8803,-5.8295,-5.8347,-5.8451,-5.8558,-5.8623,-5.8712,-5.8794,-5.8859,-5.8935,-5.8939,-5.8939,-5.8927,-5.8708,-5.8651,-5.8813,-5.8811,-5.881,-5.8809,-5.8808,-5.8545,-5.8491,-5.8651,-5.8717,-5.8843,-5.8949,-5.8973,-5.9103,-5.9159,-5.922,-5.9199,-5.9035,-5.9026,-5.9009,-5.8962,-5.9195,-5.9195,-5.9195,-5.9195,-5.8668,-5.8667,-5.8833,-5.8937,-5.9041,-5.9079,-5.9256,-5.9321,-5.9379,-5.9415,-5.9384,-5.9324,-5.9306,-5.9308,-5.9285,-5.9241,-5.9539,-5.954,-5.954,-5.8822,-5.8831,-5.8979,-5.9037,-5.9137,-5.9222,-5.9389,-5.9507,-5.9562,-5.9554,-5.9443,-5.9428,-5.9331,-5.9299,-5.9285,-5.9249,-5.9168,0,0]},{"header":{"parameterUnit":"m.s-1","parameterCategory":1,"la1":30.2992,"la2":30.254,"lo1":-89.0895,"lo2":-89.0443,"dy":0.0025,"dx":0.0025,"nx":19,"ny":19,"refTime":"2026-05-17T09:00:00:Z","depth":0,"parameterNumber":3,"parameterNumberName":"V-component_of_WINDS"},"data":[0,0,0,3.9843,3.9843,3.9825,3.9824,3.9816,3.9816,0,0,0,0,0,0,0,0,0,0,0,3.9858,3.9858,3.9843,3.9843,3.9825,3.9824,3.9816,3.9816,0,0,0,0,0,0,0,0,0,0,0,3.9858,3.9858,3.9859,3.9843,3.9825,3.9824,3.9816,3.9824,0,0,0,0,0,0,0,0,0,0,3.9839,3.9863,3.9858,3.9859,3.9843,3.9825,3.9824,3.9824,3.9824,3.9831,0,3.984,0,3.9828,3.9816,3.9816,0,0,0,3.9836,3.9863,3.985,3.9859,3.9843,3.9825,3.9831,3.9824,3.9823,3.983,3.984,3.9839,3.9828,3.9817,3.9817,3.9882,3.9882,0,0,3.9837,3.986,3.985,3.985,3.9854,3.9831,3.983,3.9823,3.9835,3.984,3.9838,3.9828,3.9817,3.9817,3.9881,3.9882,0,0,0,3.9844,3.9861,3.9847,3.9851,3.9846,3.9831,3.983,3.9835,3.9829,3.9838,3.9828,3.9817,3.9817,3.988,3.9881,3.9935,0,0,0,3.9845,3.9865,3.9848,3.9862,3.9847,3.9841,3.9842,3.983,3.9828,3.9828,3.9817,3.9817,3.988,3.9881,3.9932,3.9956,0,0,0,3.9856,3.9866,3.9867,3.9863,3.9856,3.984,3.9833,3.9829,3.9822,3.9816,3.9817,3.9879,3.9881,3.9929,3.9951,3.9979,0,0,0,3.9874,3.9915,3.9868,3.9909,3.9856,3.9874,3.9833,3.9845,3.9847,3.9817,3.988,3.9881,3.9928,3.9949,3.9977,4.0006,4.0021,0,0,3.9938,3.9923,3.9946,3.9904,3.9935,3.9875,3.9914,3.9894,3.9873,3.988,3.9881,3.9933,3.9951,3.9979,4.0097,4.0109,0,0,0,3.9974,3.999,3.9994,3.9997,3.9983,3.9972,3.9944,3.9936,3.9941,3.9881,3.995,3.996,3.9975,3.9988,3.9999,4.001,3.9888,3.9888,3.9888,4.0096,4.0067,4.0102,4.0071,4.0074,4.0045,4.0044,4.0029,3.9998,4.0015,4.0017,4.0092,4.0109,4.0116,4.0128,4.0031,4.0031,4.0031,4.0031,4.0187,4.0205,4.0163,4.0182,4.0151,4.0166,4.014,4.0117,4.0127,4.0089,4.0101,4.0061,4.013,4.0139,4.0035,4.0034,4.0034,4.0034,4.0033,4.0263,4.0266,4.0257,4.0258,4.0263,4.0229,4.0241,4.0212,4.0184,4.0196,4.0194,4.0193,4.0188,4.0198,4.0198,4.0198,4.0198,4.0199,4.0199,4.0345,4.0333,4.0346,4.0335,4.0333,4.0327,4.0298,4.0295,4.0284,4.0262,4.0262,4.0229,4.0143,4.0121,4.0203,4.0202,4.0202,4.0201,4.0201,4.0446,4.0418,4.0439,4.0437,4.0421,4.0427,4.0391,4.0388,4.0381,4.0387,4.0352,4.0293,4.0276,4.0267,4.0249,4.0359,4.0359,4.0359,4.0359,4.0509,4.0498,4.0512,4.0511,4.0507,4.0476,4.0499,4.0477,4.045,4.0444,4.0424,4.0398,4.0391,4.0377,4.0367,4.0349,4.0482,4.0482,4.0482,4.0569,4.0556,4.0582,4.0555,4.0541,4.053,4.055,4.055,4.0514,4.0486,4.0438,4.0433,4.039,4.0378,4.0349,4.0333,4.03,0,0]}]]